Deming, NM

4:38 PM MDT on April 25, 2017 (GMT -0600)
Deming Municipal

Weather History for KDMN - October, 2012

Change the Weather History Date:

Wednesday, October 3, 2012

  Actual Average Record
Temperature  
Mean Temperature 74 °F 67 °F  
Max Temperature 91 °F 82 °F 93 °F (2000)
Min Temperature 57 °F 51 °F 37 °F (1982)
Cooling Degree Days 8    
Growing Degree Days 24 (Base 50)    
Moisture  
Dew Point 29 °F    
Average Humidity 21    
Maximum Humidity 39    
Minimum Humidity 10    
Precipitation  
Precipitation 0.00 in 0.04 in 0.82 in (1984)
Month to date precipitation 0.11  
Year to date precipitation 9.00  
Sea Level Pressure  
Sea Level Pressure 29.85 in    
Wind  
Wind Speed 10 mph (West)    
Max Wind Speed 21 mph    
Max Gust Speed 33 mph    
Visibility 10 miles    
Events      
T = Trace of Precipitation, MM = Missing Value Source: NWS Daily Summary

Daily Weather History Graph

Daily Weather History Graph

Search for Another Location

Airport or City:

Trip Planner

Search our weather history database for the weather conditions in past years. The results will help you decide how hot, cold, wet, or windy it might be!

Date:

Astronomy

Oct. 03, 2012 Rise Set
Actual Time 7:06 AM MDT 6:52 PM MDT
Civil Twilight 6:42 AM MDT 7:16 PM MDT
Nautical Twilight 6:13 AM MDT 7:45 PM MDT
Astronomical Twilight 5:45 AM MDT 8:13 PM MDT
Moon 9:01 PM MDT (10/3) 10:18 AM MDT (10/3)
Length of Visible Light 12h 34m
Length of Day
11h 45m
Waning Gibbous, 88% of the Moon is Illuminated
Oct 3
Waning Gibbous
Oct 8
Last Quarter
Oct 15
New
Oct 21
First Quarter
Oct 29
Full

Hourly Weather History & Observations

Time (MDT) Temp. Dew Point Humidity Pressure Visibility Wind Dir Wind Speed Gust Speed Precip Events Conditions
12:53 AM 64.0 °F 30.9 °F 29% 29.81 in 10.0 mi WSW 8.1 mph - N/A   Clear
1:53 AM 69.1 °F 30.0 °F 23% 29.79 in 10.0 mi West 9.2 mph - N/A   Clear
2:53 AM 66.9 °F 30.0 °F 25% 29.79 in 10.0 mi West 9.2 mph - N/A   Clear
3:53 AM 64.9 °F 30.9 °F 28% 29.79 in 10.0 mi West 9.2 mph - N/A   Clear
4:53 AM 59.0 °F 32.0 °F 36% 29.82 in 10.0 mi SW 6.9 mph - N/A   Clear
5:53 AM 57.9 °F 32.0 °F 37% 29.85 in 10.0 mi WSW 9.2 mph - N/A   Clear
6:53 AM 57.0 °F 32.0 °F 39% 29.87 in 10.0 mi West 9.2 mph - N/A   Clear
7:53 AM 60.1 °F 33.1 °F 36% 29.89 in 10.0 mi West 8.1 mph - N/A   Clear
8:53 AM 68.0 °F 33.1 °F 27% 29.90 in 10.0 mi West 8.1 mph - N/A   Clear
9:53 AM 77.0 °F 30.9 °F 19% 29.91 in 10.0 mi WNW 11.5 mph - N/A   Clear
10:53 AM 81.0 °F 30.9 °F 16% 29.90 in 10.0 mi Variable 4.6 mph - N/A   Clear
11:53 AM 87.1 °F 27.0 °F 11% 29.86 in 10.0 mi WNW 13.8 mph 20.7 mph N/A   Clear
12:53 PM 89.1 °F 26.1 °F 10% 29.84 in 10.0 mi WNW 17.3 mph 25.3 mph N/A   Clear
1:53 PM 90.0 °F 27.0 °F 10% 29.81 in 10.0 mi WNW 15.0 mph 26.5 mph N/A   Clear
2:53 PM 90.0 °F 26.1 °F 10% 29.80 in 10.0 mi West 15.0 mph 33.4 mph N/A   Clear
3:53 PM 89.1 °F 27.0 °F 11% 29.81 in 10.0 mi West 13.8 mph 31.1 mph N/A   Clear
4:53 PM 88.0 °F 27.0 °F 11% 29.83 in 10.0 mi WNW 20.7 mph 26.5 mph N/A   Clear
5:53 PM 86.0 °F 26.1 °F 11% 29.86 in 10.0 mi West 18.4 mph 24.2 mph N/A   Clear
6:53 PM 82.9 °F 27.0 °F 13% 29.87 in 10.0 mi West 12.7 mph - N/A   Clear
7:53 PM 79.0 °F 28.0 °F 15% 29.88 in 10.0 mi West 15.0 mph - N/A   Clear
8:53 PM 77.0 °F 28.0 °F 17% 29.88 in 10.0 mi West 12.7 mph - N/A   Clear
9:53 PM 71.1 °F 28.0 °F 20% 29.90 in 10.0 mi West 8.1 mph - N/A   Clear
10:53 PM 68.0 °F 28.0 °F 22% 29.91 in 10.0 mi West 6.9 mph - N/A   Clear
11:53 PM 63.0 °F 30.0 °F 29% 29.93 in 10.0 mi WSW 6.9 mph - N/A   Clear